Weather History for Meridian NAS, MS

Change the Weather History Date:

Sunday, February 3, 2013

  Actual Average Record
Temperature  
Mean Temperature 48 °F -  
Max Temperature 64 °F 56 °F 75 °F (1997)
Min Temperature 33 °F 38 °F 21 °F (2000)
Degree Days  
Heating Degree Days 16    
Moisture  
Dew Point 31 °F    
Average Humidity 63    
Maximum Humidity 100    
Minimum Humidity 24    
Precipitation  
Precipitation 0.01 in - - ()
Sea Level Pressure  
Sea Level Pressure 30.22 in    
Wind  
Wind Speed 4 mph (WNW)    
Max Wind Speed 20 mph    
Max Gust Speed 31 mph    
Visibility 9 miles    
Events      
Averages and records for this station are not official NWS values.
T = Trace of Precipitation, MM = Missing Value Source: NWS Daily Summary

Daily Weather History Graph

Daily Weather History Graph

Search for Another Location

Airport:

Trip Planner

Search our weather history database for the weather conditions in past years. The results will help you decide how hot, cold, wet, or windy it might be!

Date:

Astronomy

Feb. 03, 2013 Rise Set
Actual Time 6:47 AM CST 5:29 PM CST
Civil Twilight 6:21 AM CST 5:55 PM CST
Nautical Twilight 5:52 AM CST 6:24 PM CST
Astronomical Twilight 5:23 AM CST 6:53 PM CST
Moon 12:13 AM CST (2/3) 11:08 AM CST (2/3)
Length of Visible Light 11h 33m
Length of Day
10h 42m
Waning Gibbous, 48% of the Moon is Illuminated
Feb 3
Waning Gibbous
Feb 10
New
Feb 17
First Quarter
Feb 25
Full
Mar 4
Last Quarter

Hourly Weather History & Observations

Time (CST) Temp. Windchill Dew Point Humidity Pressure Visibility Wind Dir Wind Speed Gust Speed Precip Events Conditions
12:56 AM 39.9 °F - 37.0 °F 89% 30.27 in 9.0 mi Calm Calm - N/A   Clear
1:41 AM 37.4 °F - 35.6 °F 93% 30.23 in 9.0 mi Calm Calm - N/A   Scattered Clouds
1:56 AM 36.0 °F - 34.0 °F 93% 30.26 in 8.0 mi Calm Calm - N/A   Partly Cloudy
2:45 AM 35.6 °F - 33.8 °F 93% 30.22 in 1.8 mi Calm Calm - N/A   Clear
2:56 AM 36.0 °F - 34.0 °F 93% 30.25 in 1.8 mi Calm Calm - N/A   Clear
3:03 AM 33.8 °F - 33.8 °F 100% 30.22 in 2.5 mi Calm Calm - N/A   Clear
3:11 AM 33.8 °F - 32.0 °F 93% 30.22 in 7.0 mi Calm Calm - N/A   Clear
3:56 AM 34.0 °F - 32.0 °F 92% 30.24 in 9.0 mi Calm Calm - N/A   Partly Cloudy
4:56 AM 33.1 °F - 30.9 °F 92% 30.24 in 10.0 mi Calm Calm - 0.01 in   Clear
5:56 AM 33.1 °F 30.0 °F 30.0 °F 89% 30.25 in 10.0 mi WSW 3.5 mph - N/A   Clear
6:56 AM 35.1 °F 31.0 °F 32.0 °F 89% 30.27 in 10.0 mi WSW 4.6 mph - N/A   Clear
7:56 AM 39.9 °F 36.7 °F 36.0 °F 86% 30.28 in 10.0 mi West 4.6 mph - N/A   Clear
8:56 AM 46.9 °F - 37.9 °F 71% 30.27 in 10.0 mi West 6.9 mph - N/A   Clear
9:56 AM 55.9 °F - 36.0 °F 47% 30.27 in 10.0 mi West 8.1 mph - N/A   Clear
10:56 AM 60.1 °F - 32.0 °F 35% 30.25 in 10.0 mi WNW 13.8 mph 25.3 mph N/A   Clear
11:56 AM 62.1 °F - 30.9 °F 31% 30.22 in 10.0 mi West 15.0 mph - N/A   Clear
12:00 PM 62.6 °F - 30.2 °F 30% 30.19 in 10.0 mi West 15.0 mph 24.2 mph N/A   Clear
12:56 PM 64.0 °F - 28.9 °F 27% 30.19 in 10.0 mi WNW 19.6 mph 31.1 mph N/A   Clear
1:56 PM 64.9 °F - 27.0 °F 24% 30.17 in 10.0 mi NW 18.4 mph 27.6 mph N/A   Clear
2:56 PM 64.0 °F - 27.0 °F 25% 30.16 in 10.0 mi WNW 16.1 mph 21.9 mph N/A   Clear
3:56 PM 63.0 °F - 26.1 °F 25% 30.16 in 10.0 mi WNW 17.3 mph - N/A   Clear
4:56 PM 61.0 °F - 26.1 °F 26% 30.16 in 10.0 mi NW 11.5 mph - N/A   Clear
5:56 PM 53.1 °F - 28.9 °F 40% 30.17 in 10.0 mi WNW 6.9 mph - N/A   Clear
6:56 PM 50.0 °F - 30.0 °F 46% 30.19 in 10.0 mi NNW 6.9 mph - N/A   Clear
7:56 PM 48.0 °F - 30.0 °F 50% 30.20 in 10.0 mi NW 6.9 mph - N/A   Clear
8:56 PM 46.0 °F 43.1 °F 30.0 °F 54% 30.21 in 10.0 mi NNW 5.8 mph - N/A   Clear
9:56 PM 44.1 °F 41.5 °F 30.0 °F 58% 30.20 in 10.0 mi NW 4.6 mph - N/A   Clear
10:56 PM 39.9 °F - 30.9 °F 70% 30.19 in 10.0 mi Calm Calm - N/A   Clear
11:56 PM 37.0 °F - 30.0 °F 76% 30.17 in 10.0 mi Calm Calm - N/A   Clear